Regional Weather Roundup
Issued by NWS

Home | Current Version | Previous Version | Text Only | Print | Product List | Glossary Off
Versions: 1 2 3 4 5 6 7 8 9 10 11 12 13 14 15 16 17 18 19 20 21 22 23 24 25 26 27 28 29 30 31 32 33 34 35 36 37 38 39 40 41 42 43 44 45 46 47 48 49 50

000
ASUS43 KMPX 180810
RWRMN
WEATHER ROUNDUP FOR MINNESOTA
NATIONAL WEATHER SERVICE TWIN CITIES/CHANHASSEN MN
200 AM CST THU DEC 18 2014


NOTE: "FAIR" INDICATES FEW OR NO CLOUDS BELOW 12,000 FEET WITH NO
SIGNIFICANT WEATHER AND/OR OBSTRUCTIONS TO VISIBILITY. N/A MEANS
CURRENT SKY AND/OR WEATHER CONDITIONS ARE NOT AVAILABLE.

MNZ060>063-068>070-180900-
   Twin Cities Metro

CITY           SKY/WX    TMP DP  RH WIND       PRES   REMARKS
TWIN CITIES    PTCLDY    12   9  87 CALM      30.33F
ST PAUL        CLOUDY    13   9  84 NW3       30.35S
CRYSTAL        PTCLDY    10   7  87 CALM      30.32S
BLAINE         MOCLDY    10  10 100 CALM      30.32S
LAKEVILLE      PTCLDY     7   5  92 CALM      30.32S
EDEN PRAIRIE   CLEAR     12   7  80 CALM      30.32S
SOUTH ST PAUL  PTCLDY    12   8  86 CALM      30.33S
LAKE ELMO      CLOUDY    14  10  85 CALM      30.32F
$$
MNZ001>005-007-008-013>017-022>024-027-028-180900-
   Northwest Minnesota

CITY           SKY/WX    TMP DP  RH WIND       PRES   REMARKS
BEMIDJI        PTCLDY     2  -2  83 CALM      30.27S
HALLOCK        PTCLDY     7   3  85 E3        30.29S
ROSEAU         MOCLDY     7   1  78 CALM      30.29F
WARROAD        MOCLDY     7   1  78 E3        30.30S
THIEF RVR FALL PTCLDY     7   5  92 SE3       30.28F
CROOKSTON      PTCLDY     9   7  92 SE3       30.30F
FOSSTON        PTCLDY     3   1  92 CALM      30.28S
DETROIT LAKES  PTCLDY     9   7  92 SE3       30.27F
MOORHEAD       PTCLDY     9   9 100 SE5       30.30S WCI   0
PARK RAPIDS    PTCLDY     3   0  87 CALM      30.26F
MAHNOMEN       FAIR       7   4  87 CALM      30.27F
$$
MNZ006-009>011-018-025>026-180900-
   North Central Minnesota

CITY           SKY/WX    TMP DP  RH WIND       PRES   REMARKS
BAUDETTE       MOCLDY     4   0  83 SE3       30.29F
FLAG ISLAND    MOCLDY    10   3  72 SE3       30.30S
INTL FALLS     MOCLDY     0  -5  79 CALM      30.32R
WASKISH        MOCLDY     1  -2  85 CALM      30.29F
BIG FORK       PTCLDY     0  -4  85 CALM      30.30S
LONGVILLE      PTCLDY     0  -2  92 CALM      30.28F
GRAND RAPIDS   PTCLDY     1   0  92 CALM      30.28S
CRANE LAKE     MOCLDY    -8  -9  92 CALM      30.36R
ORR            MOCLDY    -4  -8  84 CALM      30.28R
COOK           MOCLDY    -6  -8  92 CALM      30.31R
WALKER         FAIR       1  -2  85 CALM      30.27S
$$
MNZ012-019>021-037-180900-
   Northeast Minnesota

CITY           SKY/WX    TMP DP  RH WIND       PRES   REMARKS
DULUTH         FLURRIES  18  13  80 N5        30.28S WCI  11
ELY            PTCLDY    -6  -8  92 CALM      30.32R
HIBBING        CLOUDY     9   3  77 NW3       30.30S
EVELETH        FLURRIES  12  10  92 NE3       30.31S
DULUTH HARBOR  CLOUDY    21  18  86 CALM      30.35S
TWO HARBORS    CLOUDY    21  18  86 VRB1      30.29S
SILVER BAY     CLOUDY    19  16  86 CALM      30.30R
GRAND MARAIS     N/A      9   2  73 N6        30.35R WCI  -1
G MARAIS ARPRT MOCLDY     1  -6  71 CALM      30.26R
$$
MNZ029>031-032-039>041-046>048-054>057-064-180900-
   West Central Minnesota

CITY           SKY/WX    TMP DP  RH WIND       PRES   REMARKS
FERGUS FALLS   PTCLDY    10   7  85 SE5       30.32F WCI   2
WHEATON        PTCLDY     1   0  92 CALM      30.31F
MORRIS         PTCLDY     7   3  85 E6        30.27F WCI  -3
ALEXANDRIA     PTCLDY     9   5  84 SE3       30.28S
ELBOW LAKE     FAIR       9   7  90 E5        30.28S WCI   1
WADENA         MOCLDY     1   0  92 CALM      30.28S
GLENWOOD       PTCLDY     9   7  92 E3        30.28F
APPLETON       PTCLDY     3   1  92 CALM      30.30S
BENSON         PTCLDY     7   3  85 SE3       30.29F
ORTONVILLE     PTCLDY     7   1  78 CALM      30.29S
MADISON        PTCLDY     7   3  85 CALM      30.30S
WILLMAR        FAIR      10   7  85 E5        30.30F WCI   2
$$
MNZ033>034-036-042>043-049>051-058-059-180900-
   Central Minnesota

CITY           SKY/WX    TMP DP  RH WIND       PRES   REMARKS
ST CLOUD       PTCLDY    11   6  81 CALM      30.32S
SAUK CENTRE    FAIR       6   3  89 CALM      30.30S
PAYNESVILLE    PTCLDY     5   4  95 CALM      30.31S
AITKIN         PTCLDY     3  -2  78 CALM      30.28F
PINE RIVER     MOCLDY     1   0  92 CALM      30.31S
BRAINERD       MOCLDY     2  -2  83 CALM      30.30S
STAPLES        MOCLDY     3   1  92 CALM      30.29S
LONG PRAIRIE   FAIR       5   3  92 CALM      30.29F
LITTLE FALLS   MOCLDY     7   3  85 CALM      30.32S
LITCHFIELD     PTCLDY    10  10 100 CALM      30.31S
BUFFALO        PTCLDY    10   7  89 CALM      30.34R
MAPLE LAKE     PTCLDY    10   8  92 CALM      30.33R
$$
MNZ037-044-045-052-053-180900-
   East Central Minnesota

CITY           SKY/WX    TMP DP  RH WIND       PRES   REMARKS
PRINCETON      PTCLDY     7   3  85 CALM      30.32S
MORA           CLOUDY    12  10  92 CALM      30.33S
CAMBRIDGE      FLURRIES  12   7  79 CALM      30.31S
RUSH CITY      CLOUDY    17  14  87 CALM      30.33S
MOOSE LAKE     FLURRIES  14  12  92 N3        30.30F
HINCKLEY       CLOUDY    18  14  86 CALM      30.31S
CLOQUET        LGT SNOW  18  16  93 CALM      30.29S
MCGREGOR       PTCLDY     7   3  85 CALM      30.30F
$$
MNZ071>073-080-081-089-090-097-098-180900-
   Southwest Minnesota

CITY           SKY/WX    TMP DP  RH WIND       PRES   REMARKS
MONTEVIDEO     PTCLDY     5   3  92 CALM      30.31S
GRANITE FALLS  PTCLDY     4   1  88 CALM      30.33R
CANBY          PTCLDY     2   0  88 CALM      30.30S
MARSHALL       PTCLDY     1  -4  78 CALM      30.28F
REDWOOD FALLS  MOCLDY     9   6  88 CALM      30.31S
OLIVIA         MOCLDY    12  10  92 CALM      30.31R
PIPESTONE      CLOUDY    10   9  92 CALM      30.23F
WINDOM           N/A      5   3  92 CALM      30.27F
WORTHINGTON    MOCLDY     9   7  92 CALM      30.26F
JACKSON        PTCLDY    10   7  85 CALM      30.27S
TRACY          PTCLDY     6   3  88 CALM      30.28S
SLAYTON        PTCLDY     6   5  94 CALM      30.26F
$$
MNZ065>067-074>077-082>085-091>093-180900-
   South Central Minnesota

CITY           SKY/WX    TMP DP  RH WIND       PRES   REMARKS
MANKATO        MOCLDY    16   9  73 CALM      30.30F
NEW ULM        LGT SNOW  16  14  93 CALM      30.30F
ST JAMES       CLOUDY    12  10  92 CALM      30.32R
FAIRMONT       CLOUDY    10   7  85 CALM      30.29R
GLENCOE        PTCLDY    12  10  92 CALM      30.31F
FARIBAULT      PTCLDY     9   7  92 CALM      30.30F
OWATONNA       PTCLDY    10   7  85 CALM      30.29S
WASECA         MOCLDY    12  10  92 NE3       30.31S
ALBERT LEA     MOCLDY    16  12  86 CALM      30.28S
$$
MNZ078>079-086>088-094>096-180900-
   Southeast Minnesota

CITY           SKY/WX    TMP DP  RH WIND       PRES   REMARKS
ROCHESTER      MOCLDY    14  10  84 CALM      30.28S
RED WING       CLOUDY    14  10  85 CALM      30.32S
STANTON        PTCLDY    10   7  87 S3        30.31S
DODGE CENTER   PTCLDY    12  10  92 CALM      30.27S
WINONA         MOCLDY    18  14  86 CALM      30.33S
AUSTIN         PTCLDY    12  10  92 CALM      30.28S
PRESTON        CLOUDY    15  12  87 CALM      30.28S
$$
ABBREVIATIONS USED IN REMARKS
   TC - TEMPERATURES IN CELSIUS
  WCI - WIND CHILL INDEX
   HX - HEAT INDEX
  VSB - VISIBILITY
$$



USA.gov is the U.S. government's official web portal to all federal, state and local government web resources and services.